Temp
14 14 14 14 14 14 15 15 15 15 15 16 17 17 16 16 16 16 16 16 16 16
13 14 14 14 14 14 14 14 15 15 15 15 16 15 15 16 16 16 16 15 14 15
14 14 15 14 14 14 15 15 15 15 15 15 15 15 15 14 14 14 14 14 13 13
13 13 13 14 13 14 14 13 14 14 14 14 14 14 14 14 14 14 14 14 14 13
12 12 13 13 12 13 13 13 13 13 13 13 13 13 13 14 14 14 14 13 13 13
11 11 11 11 11 11 12 12 12 12 12 12 12 12 13 13 13 13 13 13 13 12
10 10 10 10 11 11 10 10 11 11 11 11 11 11 11 11 11 11 12 12 12 12
9 9 9 9 10 10 10 10 10 10 10 10 10 10 10 10 10 10 10 10 10 10
9 9 9 9 9 9 9 9 9 9 9 9 9 9 9 9 9 10 9 10 10 9
7 7 7 7 7 7 7 7 7 7 8 8 8 8 8 8 8 8 9 9 9 9
6 6 6 6 6 6 6 5 5 5 6 6 7 7 8 8 7 8 8 8 8 8
5 5 5 5 5 5 5 5 5 5 5 6 6 7 7 7 7 7 7 7 7 7
4 4 4 4 4 3 3 3 4 4 4 5 4 5 5 5 5 5 6 6 6 6
4 4 3 3 3 2 2 2 1 1 2 3 4 4 4 4 4 5 4 4 4 5
Height
741 744 748 754 760 764 768 772 774 778 780 781 779 781 786 787 787 788 789 789 790 790
742 746 751 756 761 765 768 771 771 774 774 774 775 778 779 780 780 782 783 782 782 781
745 748 750 755 757 759 762 764 767 768 769 770 771 772 773 772 775 775 775 775 776 775
749 752 754 755 758 760 761 762 763 763 763 763 762 764 766 766 767 768 768 769 769 770
755 756 758 758 759 761 761 760 761 761 760 760 760 762 762 763 763 762 763 763 763 763
759 760 760 760 760 760 760 759 758 757 756 756 757 758 759 758 757 758 758 758 760 756
763 764 763 762 760 760 762 761 761 758 755 754 753 753 756 753 754 754 754 753 753 753
765 765 764 761 759 759 758 758 755 756 753 750 752 753 753 750 749 750 750 750 750 750
763 763 760 761 761 760 759 757 756 753 751 748 748 749 747 746 747 748 748 744 745 744
764 763 762 762 761 760 758 756 752 750 748 745 745 746 743 743 740 739 742 743 744 742
766 766 763 761 761 758 754 752 749 748 745 744 744 743 740 736 735 734 735 736 737 739
763 761 761 761 758 756 752 749 749 746 740 739 740 739 738 734 731 730 728 727 727 730
768 766 763 761 760 758 755 749 747 746 743 739 735 734 732 730 728 724 722 721 721 723
765 763 761 760 760 755 749 746 742 742 740 738 735 732 729 725 723 721 717 714 714 715
Wind_Speed
26 23 20 18 18 19 21 21 22 25 27 29 25 23 29 30 27 27 28 26 27 28
9 8 8 4 4 10 16 19 22 26 27 31 34 33 32 31 30 33 35 35 33 31
6 3 3 8 10 12 16 24 26 27 28 30 30 32 34 30 30 29 32 32 29 30
11 7 6 4 2 2 4 6 9 14 21 24 29 29 28 29 29 29 28 29 30 30
14 12 10 7 5 2 3 3 4 6 8 9 10 15 17 21 25 26 27 29 26 29
15 13 12 10 8 7 6 6 6 6 7 9 11 13 16 19 20 21 23 25 26 26
17 14 11 9 8 7 8 8 7 7 8 9 10 12 15 16 19 21 23 24 24 26
16 15 15 14 14 12 10 9 9 10 10 10 12 13 15 15 17 19 20 21 22 25
14 14 16 16 15 15 14 13 13 12 13 13 14 15 14 15 18 20 22 22 22 23
16 17 17 15 16 17 18 18 17 16 16 17 17 17 17 17 18 19 21 23 24 23
14 14 16 16 15 16 19 21 20 20 19 21 22 22 20 19 19 21 22 23 25 26
18 21 18 17 17 17 20 20 22 23 24 24 25 22 23 22 22 24 26 25 25 27
13 12 12 13 16 16 18 19 20 23 23 24 25 24 24 23 23 25 27 29 29 27
15 15 16 16 19 20 20 19 20 22 21 21 21 24 23 22 22 22 22 24 25 29
Wind_Direction
146 147 151 166 182 202 204 213 227 227 237 244 248 244 243 243 252 253 249 247 249 242
83 98 117 136 207 231 233 226 230 236 243 243 240 246 252 259 257 254 251 251 252 247
83 39 310 274 278 278 273 259 253 247 241 245 247 250 253 256 257 252 255 250 250 249
90 102 125 136 149 245 232 239 242 250 254 255 251 253 252 253 251 246 250 247 249 247
78 78 82 77 68 17 314 297 276 275 270 266 254 258 255 256 254 258 255 250 242 246
66 59 48 37 25 12 355 341 318 304 296 288 276 263 261 260 260 256 251 246 244 236
52 50 48 47 41 24 358 342 331 319 301 292 287 278 266 260 261 258 254 252 249 242
38 31 24 21 16 5 356 345 332 314 307 307 294 286 285 280 272 266 261 257 251 246
24 17 14 5 1 355 350 339 329 325 317 305 295 289 284 281 277 272 267 260 254 245
8 5 1 356 351 350 347 340 337 330 324 314 302 293 285 278 271 265 264 263 258 248
5 354 352 347 343 342 343 340 337 330 326 318 305 303 297 288 272 265 262 258 256 252
356 352 345 342 343 339 338 335 329 328 325 320 313 305 295 297 285 267 262 259 253 249
335 335 329 329 330 327 323 322 315 310 311 311 314 311 305 300 294 274 271 268 263 254
330 332 332 321 320 323 328 327 324 313 308 304 303 306 309 303 296 274 263 261 260 264